Kokomo, IN

5:39 PM EDT on August 23, 2017 (GMT -0400)
Kokomo Municipal

Weather History for KOKK - December, 2012

Change the Weather History Date:

Tuesday, December 25, 2012

  Actual Average (KGUS) Record (KGUS)
Temperature  
Mean Temperature 30 °F -  
Max Temperature 33 °F 30 °F 48 °F (2015)
Min Temperature 26 °F 20 °F 3 °F (2004)
Degree Days  
Heating Degree Days 36    
Moisture  
Dew Point 26 °F    
Average Humidity 84    
Maximum Humidity 93    
Minimum Humidity 70    
Precipitation  
Precipitation 0.00 in - - ()
Sea Level Pressure  
Sea Level Pressure 30.15 in    
Wind  
Wind Speed 10 mph (NE)    
Max Wind Speed 25 mph    
Max Gust Speed 31 mph    
Visibility 9 miles    
Events      
Averages and records for this station are not official NWS values.
T = Trace of Precipitation, MM = Missing Value Source: NWS Daily Summary

Daily Weather History Graph

Daily Weather History Graph

Search for Another Location

Airport or City:

Trip Planner

Search our weather history database for the weather conditions in past years. The results will help you decide how hot, cold, wet, or windy it might be!

Date:

Astronomy

Dec. 25, 2012 Rise Set
Actual Time 7:06 AM CST 4:23 PM CST
Civil Twilight 6:35 AM CST 4:54 PM CST
Nautical Twilight 6:00 AM CST 5:28 PM CST
Astronomical Twilight 5:27 AM CST 6:01 PM CST
Moon 2:31 PM CST (12/25) 4:37 AM CST (12/25)
Length of Visible Light 10h 18m
Length of Day
9h 17m
Waxing Gibbous, 94% of the Moon is Illuminated
Dec 25
Waxing Gibbous
Dec 28
Full
Jan 4
Last Quarter
Jan 11
New
Jan 18
First Quarter

Hourly Weather History & Observations

Time (CST) Temp. Windchill Dew Point Humidity Pressure Visibility Wind Dir Wind Speed Gust Speed Precip Events Conditions
12:15 AM 30.2 °F 24.3 °F 28.4 °F 93% 30.01 in 10.0 mi North 5.8 mph - N/A   Mostly Cloudy
12:35 AM 30.2 °F 24.3 °F 26.6 °F 86% 30.02 in 10.0 mi North 5.8 mph - N/A   Overcast
12:55 AM 30.2 °F 22.6 °F 26.6 °F 86% 30.02 in 10.0 mi North 8.1 mph - N/A   Overcast
1:15 AM 30.2 °F 24.3 °F 24.8 °F 80% 30.04 in 10.0 mi North 5.8 mph - N/A   Overcast
1:35 AM 30.2 °F 21.9 °F 28.4 °F 93% 30.05 in 10.0 mi North 9.2 mph - N/A   Overcast
1:55 AM 30.2 °F 22.6 °F 26.6 °F 86% 30.07 in 9.0 mi North 8.1 mph - N/A   Overcast
2:15 AM 30.2 °F 21.9 °F 26.6 °F 86% 30.08 in 7.0 mi North 9.2 mph - N/A   Overcast
2:35 AM 30.2 °F 21.9 °F 26.6 °F 86% 30.09 in 7.0 mi NNE 9.2 mph - N/A   Overcast
2:55 AM 30.2 °F 21.3 °F 24.8 °F 80% 30.09 in 10.0 mi North 10.4 mph - N/A   Overcast
3:15 AM 30.2 °F 21.3 °F 26.6 °F 86% 30.09 in 10.0 mi NNE 10.4 mph - N/A   Overcast
3:35 AM 30.2 °F 21.9 °F 24.8 °F 80% 30.10 in 10.0 mi NNE 9.2 mph - N/A   Overcast
3:55 AM 28.4 °F 18.0 °F 24.8 °F 86% 30.09 in 10.0 mi NNE 12.7 mph - N/A   Overcast
4:15 AM 28.4 °F 20.4 °F 26.6 °F 93% 30.11 in 9.0 mi NNE 8.1 mph - N/A   Overcast
4:35 AM 28.4 °F 20.4 °F 24.8 °F 86% 30.11 in 8.0 mi North 8.1 mph - N/A   Overcast
4:55 AM 28.4 °F 19.1 °F 26.6 °F 93% 30.12 in 8.0 mi North 10.4 mph - N/A   Overcast
5:15 AM 28.4 °F 19.7 °F 26.6 °F 93% 30.13 in 8.0 mi North 9.2 mph - N/A   Overcast
5:35 AM 28.4 °F 19.1 °F 24.8 °F 86% 30.14 in 8.0 mi NNE 10.4 mph - N/A   Overcast
5:55 AM 28.4 °F 20.4 °F 26.6 °F 93% 30.15 in 8.0 mi NNE 8.1 mph - N/A   Overcast
6:15 AM 28.4 °F 21.2 °F 26.6 °F 93% 30.16 in 8.0 mi NNE 6.9 mph - N/A   Overcast
6:35 AM 28.4 °F 21.2 °F 24.8 °F 86% 30.17 in 8.0 mi NE 6.9 mph - N/A   Overcast
6:55 AM 28.4 °F 20.4 °F 24.8 °F 86% 30.17 in 8.0 mi NNE 8.1 mph - N/A   Overcast
7:15 AM 28.4 °F 22.2 °F 26.6 °F 93% 30.17 in 6.0 mi NNE 5.8 mph - N/A   Overcast
7:35 AM 26.6 °F 20.0 °F 24.8 °F 93% 30.18 in 5.0 mi NNE 5.8 mph - N/A   Scattered Clouds
7:55 AM 28.4 °F 20.4 °F 26.6 °F 93% 30.18 in 5.0 mi NNE 8.1 mph - N/A   Mostly Cloudy
8:15 AM 28.4 °F 19.1 °F 26.6 °F 93% 30.17 in 7.0 mi NNE 10.4 mph - N/A   Overcast
8:35 AM 28.4 °F 18.0 °F 24.8 °F 86% 30.16 in 8.0 mi NNE 12.7 mph - N/A   Mostly Cloudy
8:55 AM 28.4 °F 19.1 °F 24.8 °F 86% 30.17 in 9.0 mi NE 10.4 mph - N/A   Scattered Clouds
9:15 AM 28.4 °F 18.5 °F 24.8 °F 86% 30.20 in 10.0 mi NE 11.5 mph 16.1 mph N/A   Scattered Clouds
9:35 AM 30.2 °F 20.8 °F 24.8 °F 80% 30.22 in 10.0 mi NE 11.5 mph - N/A   Scattered Clouds
9:55 AM 30.2 °F 21.3 °F 26.6 °F 86% 30.22 in 10.0 mi NE 10.4 mph - N/A   Partly Cloudy
10:15 AM 30.2 °F 21.9 °F 26.6 °F 86% 30.22 in 10.0 mi NE 9.2 mph - N/A   Clear
10:35 AM 32.0 °F 24.2 °F 26.6 °F 80% 30.23 in 10.0 mi NE 9.2 mph - N/A   Scattered Clouds
10:55 AM 33.8 °F 25.8 °F 28.4 °F 81% 30.21 in 10.0 mi NE 10.4 mph - N/A   Partly Cloudy
11:15 AM 33.8 °F 26.4 °F 28.4 °F 81% 30.22 in 10.0 mi ENE 9.2 mph - N/A   Clear
11:35 AM 33.8 °F 27.0 °F 26.6 °F 75% 30.21 in 10.0 mi ENE 8.1 mph - N/A   Clear
11:55 AM 33.8 °F 25.8 °F 26.6 °F 75% 30.20 in 10.0 mi ENE 10.4 mph - N/A   Partly Cloudy
12:15 PM 33.8 °F 25.3 °F 26.6 °F 75% 30.19 in 10.0 mi ENE 11.5 mph - N/A   Partly Cloudy
12:35 PM 33.8 °F 25.3 °F 24.8 °F 70% 30.19 in 10.0 mi NE 11.5 mph - N/A   Mostly Cloudy
12:55 PM 33.8 °F 24.3 °F 26.6 °F 75% 30.19 in 10.0 mi NE 13.8 mph - N/A   Overcast
1:15 PM 33.8 °F 25.3 °F 26.6 °F 75% 30.19 in 10.0 mi ENE 11.5 mph - N/A   Overcast
1:35 PM 33.8 °F 24.8 °F 26.6 °F 75% 30.17 in 10.0 mi ENE 12.7 mph - N/A   Mostly Cloudy
2:15 PM 32.0 °F 22.5 °F 26.6 °F 80% 30.20 in 10.0 mi East 12.7 mph - N/A   Overcast
2:35 PM 32.0 °F 23.6 °F 26.6 °F 80% 30.19 in 10.0 mi East 10.4 mph - N/A   Overcast
2:55 PM 32.0 °F 23.6 °F 26.6 °F 80% 30.18 in 10.0 mi East 10.4 mph - N/A   Overcast
3:15 PM 32.0 °F 21.6 °F 26.6 °F 80% 30.18 in 10.0 mi ENE 15.0 mph 19.6 mph N/A   Overcast
3:35 PM 32.0 °F 21.2 °F 26.6 °F 80% 30.18 in 10.0 mi East 16.1 mph 19.6 mph N/A   Overcast
3:55 PM 32.0 °F 21.6 °F 26.6 °F 80% 30.18 in 10.0 mi ENE 15.0 mph - N/A   Overcast
4:15 PM 32.0 °F 22.5 °F 26.6 °F 80% 30.19 in 10.0 mi ENE 12.7 mph - N/A   Overcast
4:35 PM 32.0 °F 22.5 °F 26.6 °F 80% 30.19 in 10.0 mi ENE 12.7 mph - N/A   Overcast
4:55 PM 32.0 °F 20.5 °F 26.6 °F 80% 30.19 in 10.0 mi East 18.4 mph - N/A   Overcast
5:15 PM 32.0 °F 20.8 °F 26.6 °F 80% 30.19 in 10.0 mi East 17.3 mph 26.5 mph N/A   Overcast
5:35 PM 32.0 °F 23.0 °F 26.6 °F 80% 30.20 in 10.0 mi East 11.5 mph - N/A   Overcast
5:55 PM 32.0 °F 20.8 °F 24.8 °F 75% 30.20 in 10.0 mi East 17.3 mph - N/A   Overcast
6:35 PM 30.2 °F 21.3 °F 26.6 °F 86% 30.20 in 10.0 mi ENE 10.4 mph - N/A   Overcast
6:55 PM 30.2 °F 20.8 °F 26.6 °F 86% 30.20 in 10.0 mi ENE 11.5 mph - N/A   Overcast
7:15 PM 30.2 °F 20.8 °F 26.6 °F 86% 30.19 in 10.0 mi ENE 11.5 mph - N/A   Overcast
7:35 PM 30.2 °F 19.8 °F 26.6 °F 86% 30.17 in 10.0 mi ENE 13.8 mph - N/A   Overcast
7:55 PM 32.0 °F 21.6 °F 26.6 °F 80% 30.18 in 10.0 mi NE 15.0 mph 19.6 mph N/A   Overcast
8:15 PM 30.2 °F 19.3 °F 28.4 °F 93% 30.15 in 10.0 mi NE 15.0 mph 19.6 mph N/A   Overcast
8:35 PM 30.2 °F 19.8 °F 28.4 °F 93% 30.16 in 10.0 mi ENE 13.8 mph 19.6 mph N/A   Overcast
8:55 PM 30.2 °F 18.1 °F 26.6 °F 86% 30.15 in 10.0 mi ENE 18.4 mph - N/A   Overcast
9:15 PM 30.2 °F 18.5 °F 26.6 °F 86% 30.15 in 10.0 mi ENE 17.3 mph 23.0 mph N/A   Overcast
9:35 PM 30.2 °F 17.8 °F 26.6 °F 86% 30.13 in 10.0 mi ENE 19.6 mph - N/A   Overcast
9:55 PM 30.2 °F 18.1 °F 26.6 °F 86% 30.13 in 10.0 mi ENE 18.4 mph 24.2 mph N/A   Overcast
10:15 PM 30.2 °F 17.1 °F 26.6 °F 86% 30.13 in 10.0 mi ENE 21.9 mph - N/A   Overcast
10:35 PM 30.2 °F 16.2 °F 24.8 °F 80% 30.11 in 10.0 mi ENE 25.3 mph 31.1 mph N/A   Overcast
10:55 PM 30.2 °F 17.8 °F 24.8 °F 80% 30.11 in 10.0 mi ENE 19.6 mph - N/A   Overcast
11:15 PM 30.2 °F 17.1 °F 26.6 °F 86% 30.10 in 10.0 mi ENE 21.9 mph 28.8 mph N/A   Overcast
11:35 PM 30.2 °F 17.8 °F 26.6 °F 86% 30.08 in 10.0 mi ENE 19.6 mph 25.3 mph N/A   Overcast
11:55 PM 30.2 °F 17.4 °F 24.8 °F 80% 30.07 in 10.0 mi ENE 20.7 mph 28.8 mph N/A   Overcast